Time,TemperatureF,DewpointF,PressureIn,WindDirection,WindDirectionDegrees,WindSpeedMPH,WindSpeedGustMPH,Humidity,HourlyPrecipIn,Conditions,Clouds,dailyrainin,SoftwareType,DateUTC
2013-06-13 00:00:00,82.7,73.2,29.76,SE,133,3.0,7.0,73,0.00,,---,0.00,VWS V14.01,2013-06-13 05:00:00,
2013-06-13 00:03:00,82.7,73.2,29.77,South,170,5.0,9.0,73,0.00,,---,0.00,VWS V14.01,2013-06-13 05:03:00,
2013-06-13 00:04:00,82.7,73.2,29.76,South,181,1.0,9.0,73,0.00,,---,0.00,VWS V14.01,2013-06-13 05:04:00,
2013-06-13 00:05:00,82.7,73.2,29.77,SE,141,2.0,9.0,73,0.00,,---,0.00,VWS V14.01,2013-06-13 05:05:00,
2013-06-13 00:08:00,82.7,73.2,29.77,SE,144,4.0,9.0,73,0.00,,---,0.00,VWS V14.01,2013-06-13 05:08:00,
2013-06-13 00:09:00,82.8,73.3,29.77,South,169,7.0,9.0,73,0.00,,---,0.00,VWS V14.01,2013-06-13 05:09:00,
2013-06-13 00:10:00,82.8,73.3,29.76,SSE,164,3.0,9.0,73,0.00,,---,0.00,VWS V14.01,2013-06-13 05:10:00,
2013-06-13 00:13:00,82.8,73.3,29.77,South,181,4.0,9.0,73,0.00,,---,0.00,VWS V14.01,2013-06-13 05:13:00,
2013-06-13 00:14:00,82.8,73.3,29.76,SE,143,6.0,9.0,73,0.00,,---,0.00,VWS V14.01,2013-06-13 05:14:00,
2013-06-13 00:15:00,82.8,73.3,29.76,SE,128,5.0,9.0,73,0.00,,---,0.00,VWS V14.01,2013-06-13 05:15:00,
2013-06-13 00:18:00,82.8,73.3,29.76,SSE,152,2.0,9.0,73,0.00,,---,0.00,VWS V14.01,2013-06-13 05:18:00,
2013-06-13 00:19:00,82.9,73.4,29.76,South,178,2.0,9.0,73,0.00,,---,0.00,VWS V14.01,2013-06-13 05:19:00,
2013-06-13 00:21:00,82.8,73.3,29.76,ESE,117,7.0,9.0,73,0.00,,---,0.00,VWS V14.01,2013-06-13 05:21:00,
2013-06-13 00:24:00,82.8,73.3,29.76,SSE,152,3.0,9.0,73,0.00,,---,0.00,VWS V14.01,2013-06-13 05:24:00,
2013-06-13 00:26:00,82.9,73.4,29.76,SE,124,4.0,9.0,73,0.00,,---,0.00,VWS V14.01,2013-06-13 05:26:00,
2013-06-13 00:29:00,82.8,73.3,29.76,SSE,160,5.0,8.0,73,0.00,,---,0.00,VWS V14.01,2013-06-13 05:29:00,
2013-06-13 00:30:00,82.8,73.3,29.76,SSE,157,3.0,8.0,73,0.00,,---,0.00,VWS V14.01,2013-06-13 05:30:00,
2013-06-13 00:31:00,82.8,73.3,29.76,SE,131,5.0,8.0,73,0.00,,---,0.00,VWS V14.01,2013-06-13 05:31:00,
2013-06-13 00:34:00,82.8,73.3,29.76,SSE,168,3.0,8.0,73,0.00,,---,0.00,VWS V14.01,2013-06-13 05:34:00,
2013-06-13 00:35:00,82.7,73.2,29.76,South,169,5.0,8.0,73,0.00,,---,0.00,VWS V14.01,2013-06-13 05:35:00,
2013-06-13 00:36:00,82.7,73.2,29.76,SE,137,3.0,8.0,73,0.00,,---,0.00,VWS V14.01,2013-06-13 05:36:00,
2013-06-13 00:39:00,82.7,73.2,29.76,SE,131,3.0,8.0,73,0.00,,---,0.00,VWS V14.01,2013-06-13 05:39:00,
2013-06-13 00:40:00,82.7,73.2,29.76,WSW,237,4.0,8.0,73,0.00,,---,0.00,VWS V14.01,2013-06-13 05:40:00,
2013-06-13 00:41:00,82.7,73.2,29.76,SE,125,2.0,8.0,73,0.00,,---,0.00,VWS V14.01,2013-06-13 05:41:00,
2013-06-13 00:44:00,82.6,73.1,29.76,SSE,165,1.0,8.0,73,0.00,,---,0.00,VWS V14.01,2013-06-13 05:44:00,
2013-06-13 00:45:00,82.6,73.1,29.76,SSE,165,1.0,8.0,73,0.00,,---,0.00,VWS V14.01,2013-06-13 05:45:00,
2013-06-13 00:47:00,82.6,73.1,29.76,SSW,196,0.0,8.0,73,0.00,,---,0.00,VWS V14.01,2013-06-13 05:47:00,
2013-06-13 00:50:00,82.6,73.1,29.76,SE,126,3.0,8.0,73,0.00,,---,0.00,VWS V14.01,2013-06-13 05:50:00,
2013-06-13 00:51:00,82.5,73.0,29.76,South,183,2.0,8.0,73,0.00,,---,0.00,VWS V14.01,2013-06-13 05:51:00,
2013-06-13 00:52:00,82.5,73.0,29.76,SE,143,0.0,8.0,73,0.00,,---,0.00,VWS V14.01,2013-06-13 05:52:00,
2013-06-13 00:55:00,82.5,73.0,29.76,ESE,122,5.0,8.0,73,0.00,,---,0.00,VWS V14.01,2013-06-13 05:55:00,
2013-06-13 00:56:00,82.5,73.0,29.76,SE,139,3.0,8.0,73,0.00,,---,0.00,VWS V14.01,2013-06-13 05:56:00,
2013-06-13 00:57:00,82.5,73.0,29.76,SSE,154,4.0,4.0,73,0.00,,---,0.00,VWS V14.01,2013-06-13 05:57:00,
2013-06-13 01:00:00,82.5,73.0,29.76,SSE,167,1.0,6.0,73,0.00,,---,0.00,VWS V14.01,2013-06-13 06:00:00,
2013-06-13 01:01:00,82.5,73.4,29.76,SSE,154,2.0,6.0,74,0.00,,---,0.00,VWS V14.01,2013-06-13 06:01:00,
2013-06-13 01:02:00,82.5,73.4,29.76,South,171,2.0,6.0,74,0.00,,---,0.00,VWS V14.01,2013-06-13 06:02:00,
2013-06-13 01:05:00,82.5,73.4,29.76,South,186,7.0,7.0,74,0.00,,---,0.00,VWS V14.01,2013-06-13 06:05:00,
2013-06-13 01:06:00,82.5,73.0,29.76,ESE,121,4.0,7.0,73,0.00,,---,0.00,VWS V14.01,2013-06-13 06:06:00,
2013-06-13 01:07:00,82.5,73.4,29.76,South,173,3.0,7.0,74,0.00,,---,0.00,VWS V14.01,2013-06-13 06:07:00,
2013-06-13 01:10:00,82.4,72.9,29.76,South,181,3.0,8.0,73,0.00,,---,0.00,VWS V14.01,2013-06-13 06:10:00,
2013-06-13 01:11:00,82.4,72.9,29.76,SSW,202,3.0,8.0,73,0.00,,---,0.00,VWS V14.01,2013-06-13 06:11:00,
2013-06-13 01:12:00,82.4,72.9,29.76,SE,130,3.0,8.0,73,0.00,,---,0.00,VWS V14.01,2013-06-13 06:12:00,
2013-06-13 01:16:00,82.4,73.3,29.76,SE,125,1.0,8.0,74,0.00,,---,0.00,VWS V14.01,2013-06-13 06:16:00,
2013-06-13 01:17:00,82.4,73.3,29.76,South,173,3.0,8.0,74,0.00,,---,0.00,VWS V14.01,2013-06-13 06:17:00,
2013-06-13 01:18:00,82.4,73.3,29.76,SSE,154,0.0,8.0,74,0.00,,---,0.00,VWS V14.01,2013-06-13 06:18:00,
2013-06-13 01:21:00,82.3,73.2,29.76,South,178,3.0,8.0,74,0.00,,---,0.00,VWS V14.01,2013-06-13 06:21:00,
2013-06-13 01:22:00,82.3,73.2,29.76,South,171,0.0,8.0,74,0.00,,---,0.00,VWS V14.01,2013-06-13 06:22:00,
2013-06-13 01:23:00,82.3,73.2,29.76,ENE,65,2.0,8.0,74,0.00,,---,0.00,VWS V14.01,2013-06-13 06:23:00,
2013-06-13 01:26:00,82.3,73.2,29.76,SSW,192,3.0,8.0,74,0.00,,---,0.00,VWS V14.01,2013-06-13 06:26:00,
2013-06-13 01:27:00,82.2,73.1,29.76,SSW,192,0.0,1.0,74,0.00,,---,0.00,VWS V14.01,2013-06-13 06:27:00,
2013-06-13 01:28:00,82.2,73.1,29.76,South,187,3.0,6.0,74,0.00,,---,0.00,VWS V14.01,2013-06-13 06:28:00,
2013-06-13 01:30:00,82.2,73.1,29.76,SSW,192,1.0,8.0,74,0.00,,---,0.00,VWS V14.01,2013-06-13 06:30:00,
2013-06-13 01:31:00,82.2,73.1,29.76,SSE,166,3.0,7.0,74,0.00,,---,0.00,VWS V14.01,2013-06-13 06:31:00,
2013-06-13 01:32:00,82.2,73.1,29.76,SSE,166,0.0,7.0,74,0.00,,---,0.00,VWS V14.01,2013-06-13 06:32:00,
2013-06-13 01:33:00,82.2,73.1,29.76,SSE,166,1.0,7.0,74,0.00,,---,0.00,VWS V14.01,2013-06-13 06:33:00,
2013-06-13 01:36:00,82.2,73.1,29.76,SSE,154,2.0,7.0,74,0.00,,---,0.00,VWS V14.01,2013-06-13 06:36:00,
2013-06-13 01:37:00,82.2,73.1,29.76,SSE,168,5.0,7.0,74,0.00,,---,0.00,VWS V14.01,2013-06-13 06:37:00,
2013-06-13 01:38:00,82.2,73.1,29.76,SSE,166,2.0,7.0,74,0.00,,---,0.00,VWS V14.01,2013-06-13 06:38:00,
2013-06-13 01:41:00,82.1,73.0,29.76,SSW,209,5.0,8.0,74,0.00,,---,0.00,VWS V14.01,2013-06-13 06:41:00,
2013-06-13 01:42:00,82.2,73.1,29.75,SE,146,5.0,8.0,74,0.00,,---,0.00,VWS V14.01,2013-06-13 06:42:00,
2013-06-13 01:43:00,82.1,73.0,29.75,South,173,3.0,8.0,74,0.00,,---,0.00,VWS V14.01,2013-06-13 06:43:00,
2013-06-13 01:46:00,82.1,73.0,29.76,SE,130,1.0,8.0,74,0.00,,---,0.00,VWS V14.01,2013-06-13 06:46:00,
2013-06-13 01:47:00,82.1,73.0,29.75,SSW,209,1.0,8.0,74,0.00,,---,0.00,VWS V14.01,2013-06-13 06:47:00,
2013-06-13 01:48:00,82.1,73.0,29.75,SW,226,3.0,8.0,74,0.00,,---,0.00,VWS V14.01,2013-06-13 06:48:00,
2013-06-13 01:52:00,82.1,73.0,29.75,SSE,161,8.0,11.0,74,0.00,,---,0.00,VWS V14.01,2013-06-13 06:52:00,
2013-06-13 01:53:00,82.1,73.0,29.75,South,191,5.0,11.0,74,0.00,,---,0.00,VWS V14.01,2013-06-13 06:53:00,
2013-06-13 01:57:00,82.1,73.0,29.75,South,179,2.0,4.0,74,0.00,,---,0.00,VWS V14.01,2013-06-13 06:57:00,
2013-06-13 01:58:00,82.1,73.0,29.75,South,179,0.0,4.0,74,0.00,,---,0.00,VWS V14.01,2013-06-13 06:58:00,
2013-06-13 01:59:00,82.1,73.0,29.75,SSW,208,2.0,4.0,74,0.00,,---,0.00,VWS V14.01,2013-06-13 06:59:00,
2013-06-13 02:00:00,82.1,73.0,29.75,South,187,3.0,11.0,74,0.00,,---,0.00,VWS V14.01,2013-06-13 07:00:00,
2013-06-13 02:02:00,82.0,72.9,29.75,South,180,4.0,7.0,74,0.00,,---,0.00,VWS V14.01,2013-06-13 07:02:00,
2013-06-13 02:03:00,82.0,72.9,29.75,SSE,160,4.0,7.0,74,0.00,,---,0.00,VWS V14.01,2013-06-13 07:03:00,
2013-06-13 02:04:00,82.0,72.9,29.75,SE,145,2.0,7.0,74,0.00,,---,0.00,VWS V14.01,2013-06-13 07:04:00,
2013-06-13 02:07:00,81.9,72.8,29.75,SSE,147,4.0,7.0,74,0.00,,---,0.00,VWS V14.01,2013-06-13 07:07:00,
2013-06-13 02:08:00,81.9,72.8,29.75,SSW,195,7.0,8.0,74,0.00,,---,0.00,VWS V14.01,2013-06-13 07:08:00,
2013-06-13 02:10:00,81.9,72.8,29.75,SSE,154,4.0,8.0,74,0.00,,---,0.00,VWS V14.01,2013-06-13 07:10:00,
2013-06-13 02:12:00,81.9,72.8,29.75,SSW,197,2.0,8.0,74,0.00,,---,0.00,VWS V14.01,2013-06-13 07:12:00,
2013-06-13 02:13:00,81.9,72.8,29.75,SSE,162,4.0,8.0,74,0.00,,---,0.00,VWS V14.01,2013-06-13 07:13:00,
2013-06-13 02:14:00,81.9,72.8,29.75,SSE,154,0.0,8.0,74,0.00,,---,0.00,VWS V14.01,2013-06-13 07:14:00,
2013-06-13 02:15:00,81.8,72.7,29.75,South,187,4.0,8.0,74,0.00,,---,0.00,VWS V14.01,2013-06-13 07:15:00,
2013-06-13 02:17:00,81.8,72.7,29.75,SSW,213,1.0,8.0,74,0.00,,---,0.00,VWS V14.01,2013-06-13 07:17:00,
2013-06-13 02:18:00,81.8,72.7,29.75,South,171,8.0,8.0,74,0.00,,---,0.00,VWS V14.01,2013-06-13 07:18:00,
2013-06-13 02:19:00,81.8,72.7,29.75,SSE,164,6.0,8.0,74,0.00,,---,0.00,VWS V14.01,2013-06-13 07:19:00,
2013-06-13 02:20:00,81.8,72.7,29.75,SW,220,2.0,11.0,74,0.00,,---,0.00,VWS V14.01,2013-06-13 07:20:00,
2013-06-13 02:22:00,81.7,72.6,29.75,SSW,206,1.0,11.0,74,0.00,,---,0.00,VWS V14.01,2013-06-13 07:22:00,
2013-06-13 02:23:00,81.8,72.7,29.75,SSW,204,1.0,11.0,74,0.00,,---,0.00,VWS V14.01,2013-06-13 07:23:00,
2013-06-13 02:24:00,81.7,72.6,29.75,SSE,166,9.0,13.0,74,0.00,,---,0.00,VWS V14.01,2013-06-13 07:24:00,
2013-06-13 02:25:00,81.7,72.6,29.75,South,179,3.0,13.0,74,0.00,,---,0.00,VWS V14.01,2013-06-13 07:25:00,
2013-06-13 02:28:00,81.6,72.9,29.75,SSW,210,1.0,3.0,75,0.00,,---,0.00,VWS V14.01,2013-06-13 07:28:00,
2013-06-13 02:30:00,81.6,72.9,29.75,South,172,0.0,4.0,75,0.00,,---,0.00,VWS V14.01,2013-06-13 07:30:00,
2013-06-13 02:33:00,81.5,72.8,29.75,SE,136,5.0,6.0,75,0.00,,---,0.00,VWS V14.01,2013-06-13 07:33:00,
2013-06-13 02:34:00,81.5,72.8,29.75,South,177,5.0,6.0,75,0.00,,---,0.00,VWS V14.01,2013-06-13 07:34:00,
2013-06-13 02:35:00,81.4,72.7,29.75,WSW,239,4.0,6.0,75,0.00,,---,0.00,VWS V14.01,2013-06-13 07:35:00,
2013-06-13 02:38:00,81.4,72.7,29.75,East,99,2.0,6.0,75,0.00,,---,0.00,VWS V14.01,2013-06-13 07:38:00,
2013-06-13 02:39:00,81.3,72.6,29.75,WSW,241,3.0,6.0,75,0.00,,---,0.00,VWS V14.01,2013-06-13 07:39:00,
2013-06-13 02:40:00,81.3,72.6,29.75,South,188,2.0,6.0,75,0.00,,---,0.00,VWS V14.01,2013-06-13 07:40:00,
2013-06-13 02:43:00,81.2,72.5,29.75,WSW,253,7.0,9.0,75,0.00,,---,0.00,VWS V14.01,2013-06-13 07:43:00,
2013-06-13 02:44:00,81.3,72.6,29.75,WSW,241,0.0,9.0,75,0.00,,---,0.00,VWS V14.01,2013-06-13 07:44:00,
2013-06-13 02:45:00,81.2,72.5,29.75,SSW,195,4.0,9.0,75,0.00,,---,0.00,VWS V14.01,2013-06-13 07:45:00,
2013-06-13 02:46:00,81.2,72.5,29.75,SSW,195,0.0,9.0,75,0.00,,---,0.00,VWS V14.01,2013-06-13 07:46:00,
2013-06-13 02:48:00,81.2,72.5,29.75,South,187,0.0,9.0,75,0.00,,---,0.00,VWS V14.01,2013-06-13 07:48:00,
2013-06-13 02:49:00,81.2,72.5,29.75,South,187,0.0,9.0,75,0.00,,---,0.00,VWS V14.01,2013-06-13 07:49:00,
2013-06-13 02:50:00,81.1,72.8,29.75,SSW,208,3.0,9.0,76,0.00,,---,0.00,VWS V14.01,2013-06-13 07:50:00,
2013-06-13 02:51:00,81.1,72.4,29.75,SSW,207,3.0,9.0,75,0.00,,---,0.00,VWS V14.01,2013-06-13 07:51:00,
2013-06-13 02:53:00,81.1,72.4,29.75,SW,216,3.0,9.0,75,0.00,,---,0.00,VWS V14.01,2013-06-13 07:53:00,
2013-06-13 02:54:00,81.1,72.8,29.75,SW,215,0.0,9.0,76,0.00,,---,0.00,VWS V14.01,2013-06-13 07:54:00,
2013-06-13 02:56:00,81.0,72.7,29.75,SE,133,3.0,9.0,76,0.00,,---,0.00,VWS V14.01,2013-06-13 07:56:00,
2013-06-13 02:59:00,81.0,72.7,29.75,SW,224,0.0,4.0,76,0.00,,---,0.00,VWS V14.01,2013-06-13 07:59:00,
2013-06-13 03:00:00,81.0,72.7,29.75,SW,232,4.0,5.0,76,0.00,,---,0.00,VWS V14.01,2013-06-13 08:00:00,
2013-06-13 03:01:00,81.0,72.7,29.75,SSW,193,6.0,6.0,76,0.00,,---,0.00,VWS V14.01,2013-06-13 08:01:00,
2013-06-13 03:04:00,80.9,72.6,29.75,SSW,204,0.0,8.0,76,0.00,,---,0.00,VWS V14.01,2013-06-13 08:04:00,
2013-06-13 03:05:00,80.9,72.6,29.75,SSW,204,1.0,8.0,76,0.00,,---,0.00,VWS V14.01,2013-06-13 08:05:00,
2013-06-13 03:06:00,80.9,72.6,29.75,SSW,204,6.0,8.0,76,0.00,,---,0.00,VWS V14.01,2013-06-13 08:06:00,
2013-06-13 03:09:00,80.9,72.6,29.75,WSW,237,1.0,9.0,76,0.00,,---,0.00,VWS V14.01,2013-06-13 08:09:00,
2013-06-13 03:10:00,80.8,72.5,29.75,South,185,5.0,9.0,76,0.00,,---,0.00,VWS V14.01,2013-06-13 08:10:00,
2013-06-13 03:11:00,80.8,72.5,29.75,SSW,210,3.0,9.0,76,0.00,,---,0.00,VWS V14.01,2013-06-13 08:11:00,
2013-06-13 03:12:00,80.8,72.5,29.75,West,260,2.0,9.0,76,0.00,,---,0.00,VWS V14.01,2013-06-13 08:12:00,
2013-06-13 03:14:00,80.8,72.5,29.75,SSW,195,1.0,9.0,76,0.00,,---,0.00,VWS V14.01,2013-06-13 08:14:00,
2013-06-13 03:15:00,80.7,72.4,29.75,SSW,199,3.0,9.0,76,0.00,,---,0.00,VWS V14.01,2013-06-13 08:15:00,
2013-06-13 03:17:00,80.7,72.4,29.75,SSW,205,0.0,9.0,76,0.00,,---,0.00,VWS V14.01,2013-06-13 08:17:00,
2013-06-13 03:30:00,80.6,72.7,29.75,SSW,202,3.0,10.0,77,0.00,,---,0.00,VWS V14.01,2013-06-13 08:30:00,
2013-06-13 04:00:00,79.8,72.3,29.75,SSW,202,4.0,10.0,78,0.00,,---,0.00,VWS V14.01,2013-06-13 09:00:00,
2013-06-13 04:30:00,79.0,72.3,29.75,SSW,202,2.0,10.0,80,0.00,,---,0.00,VWS V14.01,2013-06-13 09:30:00,
2013-06-13 05:00:00,78.2,71.9,29.76,SW,225,2.0,9.0,81,0.00,,---,0.00,VWS V14.01,2013-06-13 10:00:00,
2013-06-13 05:30:00,77.5,71.9,29.77,SSW,202,3.0,7.0,83,0.00,,---,0.00,VWS V14.01,2013-06-13 10:30:00,
2013-06-13 06:00:00,76.9,71.7,29.77,SW,225,2.0,8.0,84,0.00,,---,0.00,VWS V14.01,2013-06-13 11:00:00,
2013-06-13 06:30:00,76.7,71.9,29.77,SW,225,2.0,8.0,85,0.00,,---,0.00,VWS V14.01,2013-06-13 11:30:00,
2013-06-13 07:00:00,77.5,72.3,29.78,SSW,202,2.0,6.0,84,0.00,,---,0.00,VWS V14.01,2013-06-13 12:00:00,
2013-06-13 07:30:00,79.1,72.8,29.79,SW,225,2.0,9.0,81,0.00,,---,0.00,VWS V14.01,2013-06-13 12:30:00,
2013-06-13 08:00:00,79.3,69.1,29.80,West,270,4.0,15.0,71,0.00,,---,0.00,VWS V14.01,2013-06-13 13:00:00,
2013-06-13 08:30:00,78.9,67.4,29.82,West,270,5.0,19.0,68,0.00,,---,0.00,VWS V14.01,2013-06-13 13:30:00,
2013-06-13 09:00:00,77.5,65.7,29.84,WNW,292,7.0,18.0,67,0.00,,---,0.00,VWS V14.01,2013-06-13 14:00:00,
2013-06-13 09:30:00,75.8,65.7,29.84,West,270,5.0,16.0,71,0.00,,---,0.00,VWS V14.01,2013-06-13 14:30:00,
2013-06-13 10:00:00,74.4,65.6,29.86,WNW,292,6.0,16.0,74,0.00,,---,0.00,VWS V14.01,2013-06-13 15:00:00,
2013-06-13 10:30:00,75.3,66.8,29.86,WNW,292,4.0,10.0,75,0.00,,---,0.00,VWS V14.01,2013-06-13 15:30:00,
2013-06-13 11:00:00,76.0,67.5,29.87,NW,315,4.0,11.0,75,0.00,,---,0.00,VWS V14.01,2013-06-13 16:00:00,
2013-06-13 11:30:00,76.8,67.9,29.88,WNW,292,5.0,14.0,74,0.00,,---,0.00,VWS V14.01,2013-06-13 16:30:00,
2013-06-13 12:00:00,77.2,67.9,29.88,WNW,292,5.0,14.0,73,0.00,,---,0.00,VWS V14.01,2013-06-13 17:00:00,
2013-06-13 12:30:00,77.8,68.5,29.89,WNW,292,5.0,11.0,73,0.00,,---,0.00,VWS V14.01,2013-06-13 17:30:00,
2013-06-13 13:00:00,77.1,68.2,29.90,NW,315,6.0,14.0,74,0.00,,---,0.00,VWS V14.01,2013-06-13 18:00:00,
2013-06-13 13:30:00,76.8,68.3,29.90,NW,315,6.0,15.0,75,0.00,,---,0.00,VWS V14.01,2013-06-13 18:30:00,
2013-06-13 14:00:00,76.7,67.4,29.90,WNW,292,4.0,14.0,73,0.00,,---,0.00,VWS V14.01,2013-06-13 19:00:00,
2013-06-13 14:30:00,77.3,68.4,29.90,WNW,292,4.0,12.0,74,0.00,,---,0.00,VWS V14.01,2013-06-13 19:30:00,
2013-06-13 15:00:00,77.5,68.6,29.90,WNW,292,5.0,12.0,74,0.00,,---,0.00,VWS V14.01,2013-06-13 20:00:00,
2013-06-13 15:30:00,78.0,69.4,29.90,WNW,292,6.0,14.0,75,0.00,,---,0.00,VWS V14.01,2013-06-13 20:30:00,
2013-06-13 16:00:00,78.3,69.7,29.90,WNW,292,5.0,11.0,75,0.00,,---,0.00,VWS V14.01,2013-06-13 21:00:00,
2013-06-13 16:27:00,79.2,69.8,29.88,NW,310,4.0,5.0,73,0.00,,---,0.00,VWS V14.01,2013-06-13 21:27:00,
2013-06-13 16:30:00,79.2,69.8,29.88,NW,310,4.0,5.0,73,0.00,,---,0.00,VWS V14.01,2013-06-13 21:30:00,
2013-06-13 16:32:00,79.5,70.1,29.88,North,10,4.0,7.0,73,0.00,,---,0.00,VWS V14.01,2013-06-13 21:32:00,
2013-06-13 16:33:00,79.4,69.6,29.89,WNW,286,6.0,9.0,72,0.00,,---,0.00,VWS V14.01,2013-06-13 21:33:00,
2013-06-13 16:37:00,79.4,69.2,29.88,West,273,5.0,9.0,71,0.00,,---,0.00,VWS V14.01,2013-06-13 21:37:00,
2013-06-13 16:38:00,79.4,70.0,29.88,WSW,243,5.0,9.0,73,0.00,,---,0.00,VWS V14.01,2013-06-13 21:38:00,
2013-06-13 16:42:00,79.5,69.7,29.88,West,271,5.0,9.0,72,0.00,,---,0.00,VWS V14.01,2013-06-13 21:42:00,
2013-06-13 16:43:00,79.5,69.7,29.88,NW,311,5.0,9.0,72,0.00,,---,0.00,VWS V14.01,2013-06-13 21:43:00,
2013-06-13 16:44:00,79.5,69.7,29.88,NNW,330,4.0,9.0,72,0.00,,---,0.00,VWS V14.01,2013-06-13 21:44:00,
2013-06-13 16:47:00,79.6,69.0,29.88,WNW,297,6.0,12.0,70,0.00,,---,0.00,VWS V14.01,2013-06-13 21:47:00,
2013-06-13 16:48:00,79.7,69.1,29.89,WNW,301,1.0,12.0,70,0.00,,---,0.00,VWS V14.01,2013-06-13 21:48:00,
2013-06-13 16:49:00,79.7,69.1,29.88,WNW,287,2.0,12.0,70,0.00,,---,0.00,VWS V14.01,2013-06-13 21:49:00,
2013-06-13 16:52:00,80.0,68.5,29.88,WNW,303,6.0,12.0,68,0.00,,---,0.00,VWS V14.01,2013-06-13 21:52:00,
2013-06-13 16:53:00,80.0,68.5,29.88,West,265,8.0,12.0,68,0.00,,---,0.00,VWS V14.01,2013-06-13 21:53:00,
2013-06-13 16:54:00,80.0,68.5,29.88,WNW,296,12.0,15.0,68,0.00,,---,0.00,VWS V14.01,2013-06-13 21:54:00,
2013-06-13 16:58:00,79.9,68.8,29.88,NW,308,9.0,10.0,69,0.00,,---,0.00,VWS V14.01,2013-06-13 21:58:00,
2013-06-13 16:59:00,79.9,68.4,29.88,NW,312,6.0,13.0,68,0.00,,---,0.00,VWS V14.01,2013-06-13 21:59:00,
2013-06-13 17:00:00,79.9,68.0,29.88,West,275,8.0,15.0,67,0.00,,---,0.00,VWS V14.01,2013-06-13 22:00:00,
2013-06-13 17:03:00,80.0,68.5,29.88,WNW,297,6.0,13.0,68,0.00,,---,0.00,VWS V14.01,2013-06-13 22:03:00,
2013-06-13 17:04:00,80.0,68.5,29.88,NW,318,6.0,13.0,68,0.00,,---,0.00,VWS V14.01,2013-06-13 22:04:00,
2013-06-13 17:08:00,80.2,69.1,29.88,NNW,335,3.0,13.0,69,0.00,,---,0.00,VWS V14.01,2013-06-13 22:08:00,
2013-06-13 17:09:00,80.2,69.1,29.88,NW,313,3.0,13.0,69,0.00,,---,0.00,VWS V14.01,2013-06-13 22:09:00,
2013-06-13 17:10:00,80.3,69.2,29.88,NW,325,7.0,13.0,69,0.00,,---,0.00,VWS V14.01,2013-06-13 22:10:00,
2013-06-13 17:14:00,80.6,69.5,29.88,NW,320,4.0,13.0,69,0.00,,---,0.00,VWS V14.01,2013-06-13 22:14:00,
2013-06-13 17:15:00,80.7,69.2,29.87,NNW,341,5.0,13.0,68,0.00,,---,0.00,VWS V14.01,2013-06-13 22:15:00,
2013-06-13 17:19:00,80.6,69.1,29.87,North,6,4.0,13.0,68,0.00,,---,0.00,VWS V14.01,2013-06-13 22:19:00,
2013-06-13 17:20:00,80.7,68.7,29.87,WNW,303,3.0,13.0,67,0.00,,---,0.00,VWS V14.01,2013-06-13 22:20:00,
2013-06-13 17:21:00,80.7,68.7,29.87,WNW,303,2.0,13.0,67,0.00,,---,0.00,VWS V14.01,2013-06-13 22:21:00,
2013-06-13 17:24:00,80.7,68.7,29.87,NW,314,9.0,13.0,67,0.00,,---,0.00,VWS V14.01,2013-06-13 22:24:00,
2013-06-13 17:26:00,80.7,68.3,29.87,West,268,5.0,13.0,66,0.00,,---,0.00,VWS V14.01,2013-06-13 22:26:00,
2013-06-13 17:29:00,80.5,68.5,29.87,NW,304,4.0,7.0,67,0.00,,---,0.00,VWS V14.01,2013-06-13 22:29:00,
2013-06-13 17:30:00,80.6,68.2,29.87,NNW,330,6.0,13.0,66,0.00,,---,0.00,VWS V14.01,2013-06-13 22:30:00,
2013-06-13 17:31:00,80.3,68.3,29.87,NNW,330,9.0,9.0,67,0.00,,---,0.00,VWS V14.01,2013-06-13 22:31:00,
2013-06-13 17:34:00,80.3,69.6,29.87,NW,306,4.0,9.0,70,0.00,,---,0.00,VWS V14.01,2013-06-13 22:34:00,
2013-06-13 17:35:00,80.3,69.6,29.87,WNW,293,3.0,9.0,70,0.00,,---,0.00,VWS V14.01,2013-06-13 22:35:00,
2013-06-13 17:36:00,80.4,68.4,29.87,NW,312,3.0,9.0,67,0.00,,---,0.00,VWS V14.01,2013-06-13 22:36:00,
2013-06-13 17:39:00,80.6,68.6,29.87,NW,321,6.0,10.0,67,0.00,,---,0.00,VWS V14.01,2013-06-13 22:39:00,
2013-06-13 17:40:00,80.6,68.2,29.87,West,270,6.0,10.0,66,0.00,,---,0.00,VWS V14.01,2013-06-13 22:40:00,
2013-06-13 17:41:00,80.6,69.1,29.87,WNW,295,4.0,10.0,68,0.00,,---,0.00,VWS V14.01,2013-06-13 22:41:00,
2013-06-13 17:45:00,80.6,68.2,29.87,WNW,295,7.0,10.0,66,0.00,,---,0.00,VWS V14.01,2013-06-13 22:45:00,
2013-06-13 17:46:00,80.6,68.2,29.87,WNW,301,8.0,10.0,66,0.00,,---,0.00,VWS V14.01,2013-06-13 22:46:00,
2013-06-13 17:47:00,80.6,67.8,29.87,NW,325,5.0,10.0,65,0.00,,---,0.00,VWS V14.01,2013-06-13 22:47:00,
2013-06-13 17:50:00,80.7,67.8,29.87,NW,325,5.0,10.0,65,0.00,,---,0.00,VWS V14.01,2013-06-13 22:50:00,
2013-06-13 17:51:00,80.7,68.3,29.88,NW,307,4.0,10.0,66,0.00,,---,0.00,VWS V14.01,2013-06-13 22:51:00,
2013-06-13 17:52:00,80.7,68.3,29.87,NW,314,5.0,10.0,66,0.00,,---,0.00,VWS V14.01,2013-06-13 22:52:00,
2013-06-13 17:55:00,80.8,67.9,29.87,North,354,4.0,10.0,65,0.00,,---,0.00,VWS V14.01,2013-06-13 22:55:00,
2013-06-13 17:56:00,80.8,67.9,29.87,NNW,335,5.0,10.0,65,0.00,,---,0.00,VWS V14.01,2013-06-13 22:56:00,
2013-06-13 17:57:00,80.8,67.9,29.87,NW,314,5.0,8.0,65,0.00,,---,0.00,VWS V14.01,2013-06-13 22:57:00,
2013-06-13 18:00:00,80.9,68.0,29.87,NNW,342,4.0,8.0,65,0.00,,---,0.00,VWS V14.01,2013-06-13 23:00:00,
2013-06-13 18:01:00,80.9,68.5,29.87,NW,314,3.0,8.0,66,0.00,,---,0.00,VWS V14.01,2013-06-13 23:01:00,
2013-06-13 18:03:00,80.9,68.0,29.88,NW,319,7.0,8.0,65,0.00,,---,0.00,VWS V14.01,2013-06-13 23:03:00,
2013-06-13 18:05:00,80.9,68.0,29.87,NNW,330,3.0,8.0,65,0.00,,---,0.00,VWS V14.01,2013-06-13 23:05:00,
2013-06-13 18:07:00,80.9,68.0,29.88,NW,315,2.0,9.0,65,0.00,,---,0.00,VWS V14.01,2013-06-13 23:07:00,
2013-06-13 18:08:00,81.0,68.6,29.88,NW,305,5.0,9.0,66,0.00,,---,0.00,VWS V14.01,2013-06-13 23:08:00,
2013-06-13 18:10:00,81.0,68.6,29.88,West,277,3.0,9.0,66,0.00,,---,0.00,VWS V14.01,2013-06-13 23:10:00,
2013-06-13 18:12:00,81.0,68.1,29.88,North,2,3.0,11.0,65,0.00,,---,0.00,VWS V14.01,2013-06-13 23:12:00,
2013-06-13 18:13:00,81.0,68.1,29.88,NW,310,2.0,11.0,65,0.00,,---,0.00,VWS V14.01,2013-06-13 23:13:00,
2013-06-13 18:15:00,81.0,68.1,29.87,NW,316,6.0,11.0,65,0.00,,---,0.00,VWS V14.01,2013-06-13 23:15:00,
2013-06-13 18:16:00,81.0,68.1,29.88,NW,304,5.0,11.0,65,0.00,,---,0.00,VWS V14.01,2013-06-13 23:16:00,
2013-06-13 18:17:00,81.0,67.7,29.88,WNW,286,4.0,11.0,64,0.00,,---,0.00,VWS V14.01,2013-06-13 23:17:00,
2013-06-13 18:18:00,81.0,68.1,29.87,NW,314,2.0,11.0,65,0.00,,---,0.00,VWS V14.01,2013-06-13 23:18:00,
2013-06-13 18:20:00,81.1,68.2,29.87,NW,325,1.0,11.0,65,0.00,,---,0.00,VWS V14.01,2013-06-13 23:20:00,
2013-06-13 18:21:00,81.1,68.2,29.87,NW,311,3.0,11.0,65,0.00,,---,0.00,VWS V14.01,2013-06-13 23:21:00,
2013-06-13 18:22:00,81.1,68.2,29.87,NNW,330,0.0,11.0,65,0.00,,---,0.00,VWS V14.01,2013-06-13 23:22:00,
2013-06-13 18:23:00,81.1,68.2,29.87,NW,312,2.0,11.0,65,0.00,,---,0.00,VWS V14.01,2013-06-13 23:23:00,
2013-06-13 18:26:00,81.2,68.8,29.87,NW,312,4.0,11.0,66,0.00,,---,0.00,VWS V14.01,2013-06-13 23:26:00,
2013-06-13 18:27:00,81.1,67.3,29.87,WNW,297,3.0,8.0,63,0.00,,---,0.00,VWS V14.01,2013-06-13 23:27:00,
2013-06-13 18:28:00,81.2,67.9,29.87,WNW,295,3.0,8.0,64,0.00,,---,0.00,VWS V14.01,2013-06-13 23:28:00,
2013-06-13 18:30:00,81.1,68.7,29.87,NW,312,5.0,11.0,66,0.00,,---,0.00,VWS V14.01,2013-06-13 23:30:00,
2013-06-13 18:31:00,81.2,67.9,29.88,West,281,4.0,8.0,64,0.00,,---,0.00,VWS V14.01,2013-06-13 23:31:00,
2013-06-13 18:32:00,81.2,67.9,29.88,WNW,299,5.0,8.0,64,0.00,,---,0.00,VWS V14.01,2013-06-13 23:32:00,
2013-06-13 18:33:00,81.2,67.9,29.88,WSW,254,9.0,9.0,64,0.00,,---,0.00,VWS V14.01,2013-06-13 23:33:00,
2013-06-13 18:36:00,81.1,67.8,29.88,WNW,285,4.0,9.0,64,0.00,,---,0.00,VWS V14.01,2013-06-13 23:36:00,
2013-06-13 18:37:00,81.1,68.2,29.88,WNW,293,2.0,9.0,65,0.00,,---,0.00,VWS V14.01,2013-06-13 23:37:00,
2013-06-13 18:38:00,81.1,67.8,29.88,West,269,4.0,9.0,64,0.00,,---,0.00,VWS V14.01,2013-06-13 23:38:00,
2013-06-13 18:39:00,81.1,67.8,29.88,WSW,251,4.0,9.0,64,0.00,,---,0.00,VWS V14.01,2013-06-13 23:39:00,
2013-06-13 18:41:00,81.0,67.7,29.89,WSW,252,4.0,9.0,64,0.00,,---,0.00,VWS V14.01,2013-06-13 23:41:00,
2013-06-13 18:43:00,81.0,67.7,29.89,NW,317,4.0,9.0,64,0.00,,---,0.00,VWS V14.01,2013-06-13 23:43:00,
2013-06-13 18:44:00,81.0,67.7,29.89,West,264,3.0,9.0,64,0.00,,---,0.00,VWS V14.01,2013-06-13 23:44:00,
2013-06-13 18:46:00,80.9,68.0,29.89,West,272,5.0,9.0,65,0.00,,---,0.00,VWS V14.01,2013-06-13 23:46:00,
2013-06-13 18:47:00,80.9,67.6,29.89,West,276,4.0,9.0,64,0.00,,---,0.00,VWS V14.01,2013-06-13 23:47:00,
2013-06-13 18:49:00,80.9,68.0,29.89,WNW,290,3.0,9.0,65,0.00,,---,0.00,VWS V14.01,2013-06-13 23:49:00,
2013-06-13 18:51:00,80.8,67.9,29.89,West,270,3.0,9.0,65,0.00,,---,0.00,VWS V14.01,2013-06-13 23:51:00,
2013-06-13 18:52:00,80.8,67.9,29.89,NW,316,4.0,9.0,65,0.00,,---,0.00,VWS V14.01,2013-06-13 23:52:00,
2013-06-13 18:54:00,80.7,67.8,29.89,NW,308,5.0,9.0,65,0.00,,---,0.00,VWS V14.01,2013-06-13 23:54:00,
2013-06-13 18:56:00,80.6,67.8,29.89,WNW,292,3.0,9.0,65,0.00,,---,0.00,VWS V14.01,2013-06-13 23:56:00,
2013-06-13 18:57:00,80.6,67.8,29.89,WNW,293,2.0,2.0,65,0.00,,---,0.00,VWS V14.01,2013-06-13 23:57:00,
2013-06-13 18:59:00,80.6,67.8,29.90,West,279,1.0,5.0,65,0.00,,---,0.00,VWS V14.01,2013-06-13 23:59:00,
2013-06-13 19:00:00,80.6,68.2,29.90,WNW,299,2.0,5.0,66,0.00,,---,0.00,VWS V14.01,2013-06-14 00:00:00,
2013-06-13 19:02:00,80.6,68.2,29.90,NW,315,3.0,5.0,66,0.00,,---,0.00,VWS V14.01,2013-06-14 00:02:00,
2013-06-13 19:04:00,80.5,68.1,29.89,West,271,4.0,5.0,66,0.00,,---,0.00,VWS V14.01,2013-06-14 00:04:00,
2013-06-13 19:05:00,80.5,68.1,29.89,WNW,290,6.0,6.0,66,0.00,,---,0.00,VWS V14.01,2013-06-14 00:05:00,
2013-06-13 19:07:00,80.4,68.0,29.89,West,279,4.0,7.0,66,0.00,,---,0.00,VWS V14.01,2013-06-14 00:07:00,
2013-06-13 19:09:00,80.3,67.5,29.89,NW,310,1.0,7.0,65,0.00,,---,0.00,VWS V14.01,2013-06-14 00:09:00,
2013-06-13 19:10:00,80.3,67.5,29.89,NW,309,3.0,7.0,65,0.00,,---,0.00,VWS V14.01,2013-06-14 00:10:00,
2013-06-13 19:11:00,80.3,67.5,29.90,NW,312,2.0,7.0,65,0.00,,---,0.00,VWS V14.01,2013-06-14 00:11:00,
2013-06-13 19:12:00,80.3,67.9,29.90,WNW,300,2.0,7.0,66,0.00,,---,0.00,VWS V14.01,2013-06-14 00:12:00,
2013-06-13 19:14:00,80.2,67.8,29.90,West,281,0.0,7.0,66,0.00,,---,0.00,VWS V14.01,2013-06-14 00:14:00,
2013-06-13 19:15:00,80.2,68.3,29.90,NW,325,1.0,7.0,67,0.00,,---,0.00,VWS V14.01,2013-06-14 00:15:00,
2013-06-13 19:16:00,80.2,68.3,29.90,WNW,303,4.0,7.0,67,0.00,,---,0.00,VWS V14.01,2013-06-14 00:16:00,
2013-06-13 19:17:00,80.1,67.7,29.90,WSW,251,5.0,7.0,66,0.00,,---,0.00,VWS V14.01,2013-06-14 00:17:00,
2013-06-13 19:20:00,80.1,67.7,29.90,NW,315,6.0,7.0,66,0.00,,---,0.00,VWS V14.01,2013-06-14 00:20:00,
2013-06-13 19:21:00,80.0,67.6,29.90,WNW,294,2.0,7.0,66,0.00,,---,0.00,VWS V14.01,2013-06-14 00:21:00,
2013-06-13 19:22:00,80.0,68.1,29.90,WNW,282,1.0,7.0,67,0.00,,---,0.00,VWS V14.01,2013-06-14 00:22:00,
2013-06-13 19:23:00,80.0,68.1,29.90,West,261,6.0,7.0,67,0.00,,---,0.00,VWS V14.01,2013-06-14 00:23:00,
2013-06-13 19:25:00,79.9,68.0,29.89,WNW,286,2.0,7.0,67,0.00,,---,0.00,VWS V14.01,2013-06-14 00:25:00,
2013-06-13 19:26:00,79.8,67.9,29.90,WNW,285,0.0,7.0,67,0.00,,---,0.00,VWS V14.01,2013-06-14 00:26:00,
2013-06-13 19:28:00,79.7,68.2,29.90,West,280,1.0,2.0,68,0.00,,---,0.00,VWS V14.01,2013-06-14 00:28:00,
2013-06-13 19:30:00,79.6,68.1,29.90,West,280,0.0,2.0,68,0.00,,---,0.00,VWS V14.01,2013-06-14 00:30:00,
2013-06-13 19:31:00,79.6,68.1,29.90,West,280,0.0,2.0,68,0.00,,---,0.00,VWS V14.01,2013-06-14 00:31:00,
2013-06-13 19:33:00,79.4,68.3,29.90,West,280,0.0,2.0,69,0.00,,---,0.00,VWS V14.01,2013-06-14 00:33:00,
2013-06-13 19:34:00,79.4,68.3,29.90,West,280,0.0,2.0,69,0.00,,---,0.00,VWS V14.01,2013-06-14 00:34:00,
2013-06-13 19:35:00,79.3,68.3,29.90,West,280,0.0,2.0,69,0.00,,---,0.00,VWS V14.01,2013-06-14 00:35:00,
2013-06-13 19:36:00,79.3,68.3,29.90,West,280,0.0,2.0,69,0.00,,---,0.00,VWS V14.01,2013-06-14 00:36:00,
2013-06-13 19:37:00,79.2,68.2,29.90,West,280,0.0,2.0,69,0.00,,---,0.00,VWS V14.01,2013-06-14 00:37:00,
2013-06-13 19:38:00,79.2,68.2,29.90,West,280,0.0,2.0,69,0.00,,---,0.00,VWS V14.01,2013-06-14 00:38:00,
2013-06-13 19:39:00,79.1,68.5,29.90,West,280,0.0,2.0,70,0.00,,---,0.00,VWS V14.01,2013-06-14 00:39:00,
2013-06-13 19:40:00,79.0,68.4,29.90,West,280,0.0,2.0,70,0.00,,---,0.00,VWS V14.01,2013-06-14 00:40:00,
2013-06-13 19:41:00,78.9,68.3,29.90,West,280,0.0,2.0,70,0.00,,---,0.00,VWS V14.01,2013-06-14 00:41:00,
2013-06-13 19:42:00,78.8,68.2,29.90,West,280,0.0,2.0,70,0.00,,---,0.00,VWS V14.01,2013-06-14 00:42:00,
2013-06-13 19:43:00,78.7,68.1,29.90,West,280,0.0,2.0,70,0.00,,---,0.00,VWS V14.01,2013-06-14 00:43:00,
2013-06-13 19:44:00,78.6,68.0,29.90,West,280,1.0,2.0,70,0.00,,---,0.00,VWS V14.01,2013-06-14 00:44:00,
2013-06-13 19:45:00,78.6,68.0,29.90,West,280,0.0,2.0,70,0.00,,---,0.00,VWS V14.01,2013-06-14 00:45:00,
2013-06-13 19:47:00,78.4,68.2,29.90,West,280,0.0,2.0,71,0.00,,---,0.00,VWS V14.01,2013-06-14 00:47:00,
2013-06-13 19:48:00,78.3,68.1,29.90,West,280,0.0,2.0,71,0.00,,---,0.00,VWS V14.01,2013-06-14 00:48:00,
2013-06-13 19:50:00,78.2,68.0,29.90,West,280,0.0,2.0,71,0.00,,---,0.00,VWS V14.01,2013-06-14 00:50:00,
2013-06-13 19:52:00,78.0,68.2,29.90,West,280,0.0,2.0,72,0.00,,---,0.00,VWS V14.01,2013-06-14 00:52:00,
2013-06-13 19:54:00,77.9,68.2,29.90,West,280,0.0,2.0,72,0.00,,---,0.00,VWS V14.01,2013-06-14 00:54:00,
2013-06-13 19:55:00,77.9,68.6,29.90,West,280,0.0,2.0,73,0.00,,---,0.00,VWS V14.01,2013-06-14 00:55:00,
2013-06-13 19:58:00,77.7,68.4,29.90,West,280,0.0,0.0,73,0.00,,---,0.00,VWS V14.01,2013-06-14 00:58:00,
2013-06-13 19:59:00,77.5,68.2,29.90,West,280,0.0,1.0,73,0.00,,---,0.00,VWS V14.01,2013-06-14 00:59:00,
2013-06-13 20:00:00,77.5,68.2,29.90,West,280,0.0,1.0,73,0.00,,---,0.00,VWS V14.01,2013-06-14 01:00:00,
2013-06-13 20:03:00,77.3,68.0,29.90,West,280,2.0,2.0,73,0.00,,---,0.00,VWS V14.01,2013-06-14 01:03:00,
2013-06-13 20:04:00,77.0,68.1,29.90,West,280,0.0,2.0,74,0.00,,---,0.00,VWS V14.01,2013-06-14 01:04:00,
2013-06-13 20:05:00,76.9,68.0,29.90,West,276,1.0,2.0,74,0.00,,---,0.00,VWS V14.01,2013-06-14 01:05:00,
2013-06-13 20:08:00,76.7,67.8,29.90,West,266,1.0,3.0,74,0.00,,---,0.00,VWS V14.01,2013-06-14 01:08:00,
2013-06-13 20:10:00,76.4,67.9,29.90,West,266,1.0,3.0,75,0.00,,---,0.00,VWS V14.01,2013-06-14 01:10:00,
2013-06-13 20:11:00,76.3,67.8,29.90,West,266,1.0,3.0,75,0.00,,---,0.00,VWS V14.01,2013-06-14 01:11:00,
2013-06-13 20:13:00,76.2,68.1,29.90,West,266,0.0,3.0,76,0.00,,---,0.00,VWS V14.01,2013-06-14 01:13:00,
2013-06-13 20:15:00,76.0,67.9,29.90,West,266,0.0,3.0,76,0.00,,---,0.00,VWS V14.01,2013-06-14 01:15:00,
2013-06-13 20:16:00,75.9,67.8,29.90,West,266,0.0,3.0,76,0.00,,---,0.00,VWS V14.01,2013-06-14 01:16:00,
2013-06-13 20:18:00,75.7,68.0,29.90,West,266,0.0,3.0,77,0.00,,---,0.00,VWS V14.01,2013-06-14 01:18:00,
2013-06-13 20:20:00,75.6,67.9,29.90,West,266,0.0,3.0,77,0.00,,---,0.00,VWS V14.01,2013-06-14 01:20:00,
2013-06-13 20:21:00,75.5,67.8,29.90,West,266,0.0,3.0,77,0.00,,---,0.00,VWS V14.01,2013-06-14 01:21:00,
2013-06-13 20:23:00,75.4,67.7,29.90,West,266,0.0,3.0,77,0.00,,---,0.00,VWS V14.01,2013-06-14 01:23:00,
2013-06-13 20:25:00,75.3,68.0,29.90,West,266,0.0,3.0,78,0.00,,---,0.00,VWS V14.01,2013-06-14 01:25:00,
2013-06-13 20:26:00,75.2,67.9,29.90,West,266,0.0,0.0,78,0.00,,---,0.00,VWS V14.01,2013-06-14 01:26:00,
2013-06-13 20:29:00,75.1,67.8,29.89,West,266,0.0,0.0,78,0.00,,---,0.00,VWS V14.01,2013-06-14 01:29:00,
2013-06-13 20:30:00,75.0,67.7,29.89,West,266,0.0,0.0,78,0.00,,---,0.00,VWS V14.01,2013-06-14 01:30:00,
2013-06-13 20:31:00,75.0,67.7,29.90,West,266,0.0,0.0,78,0.00,,---,0.00,VWS V14.01,2013-06-14 01:31:00,
2013-06-13 20:32:00,75.0,67.7,29.89,West,266,0.0,0.0,78,0.00,,---,0.00,VWS V14.01,2013-06-14 01:32:00,
2013-06-13 20:34:00,74.8,67.9,29.90,West,266,0.0,0.0,79,0.00,,---,0.00,VWS V14.01,2013-06-14 01:34:00,
2013-06-13 20:35:00,74.8,67.9,29.90,West,266,0.0,0.0,79,0.00,,---,0.00,VWS V14.01,2013-06-14 01:35:00,
2013-06-13 20:36:00,74.7,67.8,29.90,West,266,0.0,0.0,79,0.00,,---,0.00,VWS V14.01,2013-06-14 01:36:00,
2013-06-13 20:37:00,74.6,67.7,29.90,West,266,0.0,0.0,79,0.00,,---,0.00,VWS V14.01,2013-06-14 01:37:00,
2013-06-13 20:39:00,74.3,67.4,29.90,West,266,0.0,1.0,79,0.00,,---,0.00,VWS V14.01,2013-06-14 01:39:00,
2013-06-13 20:40:00,74.3,67.4,29.90,West,266,0.0,1.0,79,0.00,,---,0.00,VWS V14.01,2013-06-14 01:40:00,
2013-06-13 20:41:00,74.2,67.6,29.90,West,266,0.0,1.0,80,0.00,,---,0.00,VWS V14.01,2013-06-14 01:41:00,
2013-06-13 20:42:00,74.1,67.5,29.90,West,266,0.0,1.0,80,0.00,,---,0.00,VWS V14.01,2013-06-14 01:42:00,
2013-06-13 20:44:00,73.8,67.6,29.90,West,266,0.0,1.0,81,0.00,,---,0.00,VWS V14.01,2013-06-14 01:44:00,
2013-06-13 20:45:00,73.7,67.5,29.90,West,266,1.0,1.0,81,0.00,,---,0.00,VWS V14.01,2013-06-14 01:45:00,
2013-06-13 20:46:00,73.6,67.8,29.90,West,266,0.0,1.0,82,0.00,,---,0.00,VWS V14.01,2013-06-14 01:46:00,
2013-06-13 20:47:00,73.5,67.7,29.90,West,266,0.0,1.0,82,0.00,,---,0.00,VWS V14.01,2013-06-14 01:47:00,
2013-06-13 20:50:00,73.3,67.8,29.90,West,266,0.0,1.0,83,0.00,,---,0.00,VWS V14.01,2013-06-14 01:50:00,
2013-06-13 20:51:00,73.1,67.6,29.90,West,266,0.0,1.0,83,0.00,,---,0.00,VWS V14.01,2013-06-14 01:51:00,
2013-06-13 20:52:00,73.0,67.5,29.90,West,266,0.0,1.0,83,0.00,,---,0.00,VWS V14.01,2013-06-14 01:52:00,
2013-06-13 20:53:00,73.0,67.5,29.90,West,266,0.0,1.0,83,0.00,,---,0.00,VWS V14.01,2013-06-14 01:53:00,
2013-06-13 20:55:00,72.8,67.3,29.90,West,266,0.0,1.0,83,0.00,,---,0.00,VWS V14.01,2013-06-14 01:55:00,
2013-06-13 20:57:00,72.8,67.3,29.90,West,266,0.0,0.0,83,0.00,,---,0.00,VWS V14.01,2013-06-14 01:57:00,
2013-06-13 20:58:00,72.7,67.2,29.90,West,266,0.0,0.0,83,0.00,,---,0.00,VWS V14.01,2013-06-14 01:58:00,
2013-06-13 21:00:00,72.6,67.2,29.90,West,266,0.0,0.0,83,0.00,,---,0.00,VWS V14.01,2013-06-14 02:00:00,
2013-06-13 21:02:00,72.5,67.4,29.90,West,266,0.0,0.0,84,0.00,,---,0.00,VWS V14.01,2013-06-14 02:02:00,
2013-06-13 21:03:00,72.5,67.4,29.90,West,266,0.0,0.0,84,0.00,,---,0.00,VWS V14.01,2013-06-14 02:03:00,
2013-06-13 21:05:00,72.4,67.3,29.90,West,266,0.0,0.0,84,0.00,,---,0.00,VWS V14.01,2013-06-14 02:05:00,
2013-06-13 21:07:00,72.2,67.1,29.90,West,266,0.0,0.0,84,0.00,,---,0.00,VWS V14.01,2013-06-14 02:07:00,
2013-06-13 21:08:00,72.2,67.1,29.90,West,266,0.0,0.0,84,0.00,,---,0.00,VWS V14.01,2013-06-14 02:08:00,
2013-06-13 21:10:00,72.1,67.3,29.90,West,266,0.0,0.0,85,0.00,,---,0.00,VWS V14.01,2013-06-14 02:10:00,
2013-06-13 21:12:00,71.9,67.2,29.90,West,266,0.0,0.0,85,0.00,,---,0.00,VWS V14.01,2013-06-14 02:12:00,
2013-06-13 21:13:00,71.8,67.4,29.90,West,266,0.0,0.0,86,0.00,,---,0.00,VWS V14.01,2013-06-14 02:13:00,
2013-06-13 21:15:00,71.7,67.3,29.90,West,266,0.0,0.0,86,0.00,,---,0.00,VWS V14.01,2013-06-14 02:15:00,
2013-06-13 21:16:00,71.6,67.2,29.90,West,266,0.0,0.0,86,0.00,,---,0.00,VWS V14.01,2013-06-14 02:16:00,
2013-06-13 21:18:00,71.5,67.4,29.91,West,266,0.0,0.0,87,0.00,,---,0.00,VWS V14.01,2013-06-14 02:18:00,
2013-06-13 21:20:00,71.3,67.2,29.91,West,266,0.0,1.0,87,0.00,,---,0.00,VWS V14.01,2013-06-14 02:20:00,
2013-06-13 21:21:00,71.3,67.2,29.91,West,266,0.0,1.0,87,0.00,,---,0.00,VWS V14.01,2013-06-14 02:21:00,
2013-06-13 21:23:00,71.2,67.1,29.91,West,266,0.0,1.0,87,0.00,,---,0.00,VWS V14.01,2013-06-14 02:23:00,
2013-06-13 21:24:00,71.2,67.1,29.91,West,266,0.0,1.0,87,0.00,,---,0.00,VWS V14.01,2013-06-14 02:24:00,
2013-06-13 21:26:00,71.0,67.3,29.91,West,266,0.0,1.0,88,0.00,,---,0.00,VWS V14.01,2013-06-14 02:26:00,
2013-06-13 21:28:00,70.9,67.2,29.91,West,266,0.0,0.0,88,0.00,,---,0.00,VWS V14.01,2013-06-14 02:28:00,
2013-06-13 21:29:00,70.8,67.1,29.91,West,266,0.0,0.0,88,0.00,,---,0.00,VWS V14.01,2013-06-14 02:29:00,
2013-06-13 21:30:00,71.0,67.3,29.91,West,266,0.0,1.0,88,0.00,,---,0.00,VWS V14.01,2013-06-14 02:30:00,
2013-06-13 21:31:00,70.7,67.0,29.91,West,266,0.0,0.0,88,0.00,,---,0.00,VWS V14.01,2013-06-14 02:31:00,
2013-06-13 21:33:00,70.7,67.0,29.91,West,266,0.0,0.0,88,0.00,,---,0.00,VWS V14.01,2013-06-14 02:33:00,
2013-06-13 21:34:00,70.6,66.9,29.91,West,266,0.0,0.0,88,0.00,,---,0.00,VWS V14.01,2013-06-14 02:34:00,
2013-06-13 21:36:00,70.6,66.9,29.90,West,266,0.0,0.0,88,0.00,,---,0.00,VWS V14.01,2013-06-14 02:36:00,
2013-06-13 21:37:00,70.6,66.9,29.91,West,266,0.0,0.0,88,0.00,,---,0.00,VWS V14.01,2013-06-14 02:37:00,
2013-06-13 21:38:00,70.6,66.9,29.90,West,266,0.0,0.0,88,0.00,,---,0.00,VWS V14.01,2013-06-14 02:38:00,
2013-06-13 21:39:00,70.6,66.9,29.90,West,266,0.0,0.0,88,0.00,,---,0.00,VWS V14.01,2013-06-14 02:39:00,
2013-06-13 21:41:00,70.6,66.9,29.91,West,266,0.0,0.0,88,0.00,,---,0.00,VWS V14.01,2013-06-14 02:41:00,
2013-06-13 21:42:00,70.6,66.9,29.91,West,266,0.0,0.0,88,0.00,,---,0.00,VWS V14.01,2013-06-14 02:42:00,
2013-06-13 21:43:00,70.6,66.9,29.91,West,266,0.0,0.0,88,0.00,,---,0.00,VWS V14.01,2013-06-14 02:43:00,
2013-06-13 21:44:00,70.6,66.9,29.91,West,266,0.0,0.0,88,0.00,,---,0.00,VWS V14.01,2013-06-14 02:44:00,
2013-06-13 21:47:00,70.6,66.9,29.91,West,266,0.0,0.0,88,0.00,,---,0.00,VWS V14.01,2013-06-14 02:47:00,
2013-06-13 21:48:00,70.6,66.9,29.91,West,266,0.0,0.0,88,0.00,,---,0.00,VWS V14.01,2013-06-14 02:48:00,
2013-06-13 21:49:00,70.6,66.9,29.91,West,266,0.0,0.0,88,0.00,,---,0.00,VWS V14.01,2013-06-14 02:49:00,
2013-06-13 21:52:00,70.6,66.9,29.90,West,266,0.0,0.0,88,0.00,,---,0.00,VWS V14.01,2013-06-14 02:52:00,
2013-06-13 21:54:00,70.6,66.9,29.91,West,266,0.0,0.0,88,0.00,,---,0.00,VWS V14.01,2013-06-14 02:54:00,
2013-06-13 21:57:00,70.6,66.9,29.91,West,266,0.0,0.0,88,0.00,,---,0.00,VWS V14.01,2013-06-14 02:57:00,
2013-06-13 21:59:00,70.6,66.9,29.91,West,266,0.0,0.0,88,0.00,,---,0.00,VWS V14.01,2013-06-14 02:59:00,
2013-06-13 22:00:00,70.6,66.9,29.91,West,266,0.0,0.0,88,0.00,,---,0.00,VWS V14.01,2013-06-14 03:00:00,
2013-06-13 22:02:00,70.6,66.9,29.90,West,266,0.0,0.0,88,0.00,,---,0.00,VWS V14.01,2013-06-14 03:02:00,
2013-06-13 22:04:00,70.6,66.9,29.90,West,266,0.0,0.0,88,0.00,,---,0.00,VWS V14.01,2013-06-14 03:04:00,
2013-06-13 22:05:00,70.6,66.9,29.90,West,266,0.0,0.0,88,0.00,,---,0.00,VWS V14.01,2013-06-14 03:05:00,
2013-06-13 22:07:00,70.6,66.9,29.91,West,266,0.0,0.0,88,0.00,,---,0.00,VWS V14.01,2013-06-14 03:07:00,
2013-06-13 22:09:00,70.6,66.9,29.91,West,266,0.0,0.0,88,0.00,,---,0.00,VWS V14.01,2013-06-14 03:09:00,
2013-06-13 22:10:00,70.6,66.9,29.91,West,266,0.0,0.0,88,0.00,,---,0.00,VWS V14.01,2013-06-14 03:10:00,
2013-06-13 22:12:00,70.6,66.9,29.91,West,266,0.0,0.0,88,0.00,,---,0.00,VWS V14.01,2013-06-14 03:12:00,
2013-06-13 22:13:00,70.6,66.9,29.91,West,266,0.0,0.0,88,0.00,,---,0.00,VWS V14.01,2013-06-14 03:13:00,
2013-06-13 22:14:00,70.6,66.9,29.90,West,266,0.0,0.0,88,0.00,,---,0.00,VWS V14.01,2013-06-14 03:14:00,
2013-06-13 22:15:00,70.6,66.9,29.90,West,266,0.0,0.0,88,0.00,,---,0.00,VWS V14.01,2013-06-14 03:15:00,
2013-06-13 22:18:00,70.6,66.9,29.91,West,266,0.0,0.0,88,0.00,,---,0.00,VWS V14.01,2013-06-14 03:18:00,
2013-06-13 22:19:00,70.6,66.9,29.91,West,266,0.0,0.0,88,0.00,,---,0.00,VWS V14.01,2013-06-14 03:19:00,
2013-06-13 22:20:00,70.6,66.9,29.91,West,266,0.0,0.0,88,0.00,,---,0.00,VWS V14.01,2013-06-14 03:20:00,
2013-06-13 22:23:00,70.6,66.9,29.91,West,266,0.0,0.0,88,0.00,,---,0.00,VWS V14.01,2013-06-14 03:23:00,
2013-06-13 22:24:00,70.6,66.9,29.91,West,266,0.0,0.0,88,0.00,,---,0.00,VWS V14.01,2013-06-14 03:24:00,
2013-06-13 22:25:00,70.6,66.9,29.90,West,266,0.0,0.0,88,0.00,,---,0.00,VWS V14.01,2013-06-14 03:25:00,
2013-06-13 22:28:00,70.6,66.9,29.90,West,266,0.0,0.0,88,0.00,,---,0.00,VWS V14.01,2013-06-14 03:28:00,
2013-06-13 22:29:00,70.6,66.9,29.90,West,266,0.0,0.0,88,0.00,,---,0.00,VWS V14.01,2013-06-14 03:29:00,
2013-06-13 22:30:00,70.6,66.9,29.91,West,266,0.0,0.0,88,0.00,,---,0.00,VWS V14.01,2013-06-14 03:30:00,
2013-06-13 22:33:00,70.6,66.9,29.91,West,266,0.0,0.0,88,0.00,,---,0.00,VWS V14.01,2013-06-14 03:33:00,
2013-06-13 22:34:00,70.6,66.9,29.91,West,266,0.0,0.0,88,0.00,,---,0.00,VWS V14.01,2013-06-14 03:34:00,
2013-06-13 22:35:00,70.6,66.9,29.91,West,266,0.0,0.0,88,0.00,,---,0.00,VWS V14.01,2013-06-14 03:35:00,
2013-06-13 22:38:00,68.4,66.0,29.91,West,266,0.0,0.0,92,0.00,,---,0.00,VWS V14.01,2013-06-14 03:38:00,
2013-06-13 22:39:00,68.4,66.0,29.91,West,266,0.0,0.0,92,0.00,,---,0.00,VWS V14.01,2013-06-14 03:39:00,
2013-06-13 22:40:00,68.2,65.8,29.91,West,266,0.0,1.0,92,0.00,,---,0.00,VWS V14.01,2013-06-14 03:40:00,
2013-06-13 22:43:00,68.0,65.6,29.91,West,266,0.0,1.0,92,0.00,,---,0.00,VWS V14.01,2013-06-14 03:43:00,
2013-06-13 22:44:00,68.0,65.6,29.91,West,266,0.0,1.0,92,0.00,,---,0.00,VWS V14.01,2013-06-14 03:44:00,
2013-06-13 22:45:00,67.9,65.5,29.91,West,266,0.0,1.0,92,0.00,,---,0.00,VWS V14.01,2013-06-14 03:45:00,
2013-06-13 22:46:00,67.9,65.5,29.91,West,266,0.0,1.0,92,0.00,,---,0.00,VWS V14.01,2013-06-14 03:46:00,
2013-06-13 22:49:00,67.8,65.4,29.90,West,266,0.0,1.0,92,0.00,,---,0.00,VWS V14.01,2013-06-14 03:49:00,
2013-06-13 22:50:00,67.7,65.3,29.90,West,266,0.0,1.0,92,0.00,,---,0.00,VWS V14.01,2013-06-14 03:50:00,
2013-06-13 22:51:00,67.7,65.3,29.90,West,266,0.0,1.0,92,0.00,,---,0.00,VWS V14.01,2013-06-14 03:51:00,
2013-06-13 22:54:00,67.6,65.5,29.90,West,266,0.0,1.0,93,0.00,,---,0.00,VWS V14.01,2013-06-14 03:54:00,
2013-06-13 22:56:00,67.6,65.5,29.90,West,266,0.0,1.0,93,0.00,,---,0.00,VWS V14.01,2013-06-14 03:56:00,
2013-06-13 22:59:00,67.5,65.4,29.90,West,266,0.0,0.0,93,0.00,,---,0.00,VWS V14.01,2013-06-14 03:59:00,
2013-06-13 23:00:00,67.6,65.5,29.90,West,266,0.0,1.0,93,0.00,,---,0.00,VWS V14.01,2013-06-14 04:00:00,
2013-06-13 23:01:00,67.5,65.4,29.90,West,266,0.0,0.0,93,0.00,,---,0.00,VWS V14.01,2013-06-14 04:01:00,
2013-06-13 23:06:00,67.2,65.1,29.90,West,266,2.0,2.0,93,0.00,,---,0.00,VWS V14.01,2013-06-14 04:06:00,
2013-06-13 23:07:00,67.2,65.1,29.90,West,266,0.0,2.0,93,0.00,,---,0.00,VWS V14.01,2013-06-14 04:07:00,
2013-06-13 23:11:00,67.1,65.0,29.89,West,266,0.0,2.0,93,0.00,,---,0.00,VWS V14.01,2013-06-14 04:11:00,
2013-06-13 23:12:00,67.0,64.9,29.89,West,266,0.0,2.0,93,0.00,,---,0.00,VWS V14.01,2013-06-14 04:12:00,
2013-06-13 23:16:00,66.9,64.8,29.89,West,266,0.0,2.0,93,0.00,,---,0.00,VWS V14.01,2013-06-14 04:16:00,
2013-06-13 23:17:00,66.8,64.7,29.89,West,266,0.0,2.0,93,0.00,,---,0.00,VWS V14.01,2013-06-14 04:17:00,
2013-06-13 23:21:00,66.7,64.6,29.89,West,266,0.0,2.0,93,0.00,,---,0.00,VWS V14.01,2013-06-14 04:21:00,
2013-06-13 23:22:00,66.7,64.6,29.89,West,266,0.0,2.0,93,0.00,,---,0.00,VWS V14.01,2013-06-14 04:22:00,
2013-06-13 23:26:00,66.6,64.5,29.89,West,266,0.0,2.0,93,0.00,,---,0.00,VWS V14.01,2013-06-14 04:26:00,
2013-06-13 23:27:00,66.6,64.5,29.89,West,266,0.0,0.0,93,0.00,,---,0.00,VWS V14.01,2013-06-14 04:27:00,
2013-06-13 23:30:00,66.6,64.5,29.89,West,266,0.0,2.0,93,0.00,,---,0.00,VWS V14.01,2013-06-14 04:30:00,
2013-06-13 23:31:00,66.5,64.4,29.89,West,266,0.0,0.0,93,0.00,,---,0.00,VWS V14.01,2013-06-14 04:31:00,
2013-06-13 23:32:00,66.5,64.4,29.89,West,266,0.0,0.0,93,0.00,,---,0.00,VWS V14.01,2013-06-14 04:32:00,
2013-06-13 23:33:00,66.4,64.3,29.89,West,266,0.0,0.0,93,0.00,,---,0.00,VWS V14.01,2013-06-14 04:33:00,
2013-06-13 23:36:00,66.3,64.5,29.89,West,266,0.0,0.0,94,0.00,,---,0.00,VWS V14.01,2013-06-14 04:36:00,
2013-06-13 23:37:00,66.3,64.5,29.89,West,266,0.0,0.0,94,0.00,,---,0.00,VWS V14.01,2013-06-14 04:37:00,
2013-06-13 23:38:00,66.3,64.5,29.89,West,266,0.0,0.0,94,0.00,,---,0.00,VWS V14.01,2013-06-14 04:38:00,
2013-06-13 23:41:00,66.2,64.4,29.89,West,266,0.0,0.0,94,0.00,,---,0.00,VWS V14.01,2013-06-14 04:41:00,
2013-06-13 23:42:00,66.2,64.4,29.89,West,266,0.0,0.0,94,0.00,,---,0.00,VWS V14.01,2013-06-14 04:42:00,
2013-06-13 23:43:00,66.2,64.4,29.89,West,266,0.0,0.0,94,0.00,,---,0.00,VWS V14.01,2013-06-14 04:43:00,
2013-06-13 23:46:00,66.1,64.3,29.89,West,266,0.0,0.0,94,0.00,,---,0.00,VWS V14.01,2013-06-14 04:46:00,
2013-06-13 23:47:00,66.1,64.3,29.89,West,266,0.0,0.0,94,0.00,,---,0.00,VWS V14.01,2013-06-14 04:47:00,
2013-06-13 23:48:00,66.1,64.3,29.89,West,266,0.0,0.0,94,0.00,,---,0.00,VWS V14.01,2013-06-14 04:48:00,
2013-06-13 23:51:00,66.0,64.2,29.89,West,266,0.0,0.0,94,0.00,,---,0.00,VWS V14.01,2013-06-14 04:51:00,
2013-06-13 23:52:00,66.0,64.2,29.89,West,266,0.0,0.0,94,0.00,,---,0.00,VWS V14.01,2013-06-14 04:52:00,
2013-06-13 23:53:00,66.0,64.2,29.89,West,266,0.0,0.0,94,0.00,,---,0.00,VWS V14.01,2013-06-14 04:53:00,
2013-06-13 23:56:00,65.9,64.1,29.89,West,266,0.0,0.0,94,0.00,,---,0.00,VWS V14.01,2013-06-14 04:56:00,
2013-06-13 23:57:00,65.9,64.1,29.89,West,266,0.0,0.0,94,0.00,,---,0.00,VWS V14.01,2013-06-14 04:57:00,
2013-06-13 23:58:00,65.9,64.1,29.89,West,266,0.0,0.0,94,0.00,,---,0.00,VWS V14.01,2013-06-14 04:58:00,